Regional Weather Roundup
Issued by NWS

Home | Current Version | Previous Version | Text Only | Print | Product List | Glossary Off
Versions: 1 2 3 4 5 6 7 8 9 10 11 12 13 14 15 16 17 18 19 20 21 22 23 24 25 26 27 28 29 30 31 32 33 34 35 36 37 38 39 40 41 42 43 44 45 46 47 48 49 50

000
ASUS43 KTOP 182008
RWRKS

WEATHER ROUNDUP FOR KANSAS
NATIONAL WEATHER SERVICE GOODLAND KS
200 PM CST SAT NOV 18 2017

NOTE:  "FAIR" INDICATES FEW OR NO CLOUDS BELOW 12,000 FEET WITH NO
SIGNIFICANT WEATHER AND/OR OBSTRUCTIONS TO VISIBILITY.

KSZ001>006-013>018-027>032-041>047-182100-
NORTHWEST KANSAS

CITY           SKY/WX    TMP DP  RH WIND       PRES   REMARKS
GOODLAND       SUNNY     46  15  28 NW21G35   30.21S
HAYS           MOSUNNY   53  22  29 N28G36    30.15R
HILL CITY      SUNNY     51  22  31 NW24G40   30.18S
RUSSELL        LGT RAIN  54  27  35 N26G35    30.12S
$$

KSZ061>065-074>080-084>089-182100-
SOUTHWEST KANSAS

CITY           SKY/WX    TMP DP  RH WIND       PRES   REMARKS
DODGE CITY     SUNNY     53  21  28 N24G38    30.19R
ELKHART        SUNNY     52  21  28 N17G30    30.25S
GARDEN CITY    SUNNY     51  18  27 N23G33    30.21S
GREAT BEND     SUNNY     53  26  35 NW25G33   30.14R
LIBERAL        SUNNY     53  16  23 N25G32    30.22F
PRATT          MOSUNNY   53  27  36 N25G32    30.14R
$$

KSZ066>073-081>083-090>101-182100-
SOUTHEAST KANSAS

CITY           SKY/WX    TMP DP  RH WIND       PRES   REMARKS
CHANUTE        CLOUDY    50  34  54 NW15G28   30.02R
COFFEYVILLE    CLOUDY    52  30  43 N18G28    30.03F
HUTCHINSON     SUNNY     54  31  41 N23G33    30.09S
MEDICINE LODGE   N/A     56  29  35 N21G39    30.13R
NEWTON         CLOUDY    53  32  44 N26G36    30.07S
PARSONS        CLOUDY    51  32  48 NW18G25   30.04S
WICHITA INTL   MOSUNNY   56  35  45 N22       30.08F
WICHITA JABRA  MOSUNNY   53  35  50 N22G30    30.07S
WICHITA MCCONL MOSUNNY   55  33  42 NW22G33   30.07F
WINFIELD       MOSUNNY   55  35  47 NW18G30   30.10S
$$

KSZ007>012-019>026-033>040-048>060-102>105-182100-
NORTHEAST KANSAS

CITY           SKY/WX    TMP DP  RH WIND       PRES   REMARKS
CONCORDIA      SUNNY     52  29  41 NW25G33   30.08R
EMPORIA        PTSUNNY   51  35  54 NW23G36   30.03R
LAWRENCE       CLOUDY    52  33  48 NW30G36   29.99R
MANHATTAN      MOSUNNY   55  33  43 N13G23    30.05S
MARYSVILLE     MOSUNNY   52  32  46 N24G32    30.04R
OLATHE IND     CLOUDY    48  31  51 NW26G38   29.98R
OLATHE EXE     PTSUNNY   47  29  49 N16G31    29.96R
SALINA         SUNNY     56  28  34 N30G37    30.08R
TOPEKA BILLARD MOSUNNY   52  37  56 NW17G31   30.01R
TOPEKA FORBES  MOSUNNY   53  37  54 NW29      30.01R
$$




USA.gov is the U.S. government's official web portal to all federal, state and local government web resources and services.